Regional Weather Roundup
Issued by NWS Midland/Odessa, TX

Skip options and go directly to product.
Home | Oldest Version | Previous Version | Current Version | All | Graphics & Text | Save Text | Print | Product List | Glossary On

Skip product version selection by date and time.   
759
ASUS44 KMAF 140110
RWRMAF
MIDLAND AREA WEATHER ROUNDUP
NATIONAL WEATHER SERVICE MIDLAND TX
700 PM CST SAT FEB 13 2016

...IN SOUTHWEST TEXAS AND SOUTHEAST NEW MEXICO...

CITY           SKY/WX    TMP DP  RH WIND       PRES   REMARKS
ALPINE         CLEAR     60  15  17 SW9       30.19S
ANDREWS        FAIR      62  35  35 S8        30.04F
ARTESIA        CLEAR     63  19  19 SW12      30.02R
BIG SPRING     CLEAR     63  35  35 S10       30.06F
CARLSBAD       CLEAR     62  29  28 S10       30.00F
DRYDEN           N/A     70  45  40 SE6       30.08R
FORT STOCKTON  CLEAR     69  30  23 S14       30.06R
GUAD PASS      CLOUDY    64   4   9 SW22      30.12R
HOBBS          CLEAR     59  21  23 S8        30.05F
MARFA          CLEAR     60  15  17 SW6       30.16
MIDLAND AIRPK  CLEAR     69  36  29 S12       30.05F
MIDLAND INTL   CLEAR     67  37  33 S10       30.05S
ODESSA         CLEAR     69  34  27 S12       30.05F
PECOS          CLEAR     69  32  25 NW7       30.00F
PRESIDIO       FAIR      72  21  14 W5        30.04S
SEMINOLE       CLEAR     60  25  26 SW7       30.04F
SNYDER           N/A     67  39  35 S9        30.05S
WINK           CLEAR     67  33  28 SE8       30.02S
$$
...OTHER STATIONS IN TEXAS...

CITY           SKY/WX    TMP DP  RH WIND       PRES   REMARKS
ABILENE        PTCLDY    67  41  38 S10       30.06S
AMARILLO       CLEAR     60  30  32 S16       29.95F
AUSTIN         PTCLDY    68  51  54 SE8       30.16F
BROWNSVILLE    CLEAR     66  58  75 SE9       30.19F
CORPUS CHRISTI PTCLDY    66  52  60 SE12      30.20S
DALLAS FTW     MOCLDY    61  41  47 SE13      30.14S
DEL RIO        CLEAR     71  47  42 E8        30.08S
EL PASO        MOCLDY    71   5   7 W7        30.05S
HOUSTON INT    MOCLDY    59  50  72 SE15      30.25S
LUBBOCK        PTCLDY    58  32  37 S10       30.02S
SAN ANGELO     CLEAR     69  32  25 S9        30.07F
SAN ANTONIO    PTCLDY    67  49  52 SE12      30.15F
WACO           PTCLDY    65  51  60 S12       30.15F
WICHITA FALLS  NOT AVBL
$$
...OTHER LOCATIONS IN NEW MEXICO...

CITY           SKY/WX    TMP DP  RH WIND       PRES   REMARKS
ALAMAGORDO     CLEAR     64  12  13 SE7       30.07F
ALBUQUERQUE    PTCLDY    63  13  14 S8        30.08F
CANNON AFB     CLEAR     56  17  21 SW7       30.01R
CLOVIS         CLEAR     54  18  24 SW10      30.02S
HOLLOMAN AFB   CLEAR     65  10  11 SE6       30.05F
ROSWELL        CLEAR     64  18  17 SW10      29.99S
RUIDOSO          N/A     52   7  16 SW15      30.18S
SANTA FE       CLEAR     55  12  18 NW13      30.11R
TRUTH OR CONSE PTCLDY    67   6   9 S8        30.06R
TUCUMCARI      CLEAR     62  18  18 SW12      29.94S
$$

USA.gov is the U.S. government's official web portal to all federal, state and local government web resources and services.